軌道要素
Epoch 2016 May 12.0 TT = JDT 2457520.5
T 2016 May 6.57805 TT MPCW
q 3.3695915 (2000.0) P Q
z -0.0001189 Peri. 284.76969 +0.32051160 +0.89850568
+/-0.0000004 Node 341.90208 +0.51822454 -0.43137494
e 1.0004006 Incl. 105.08814 -0.79291591 +0.08126008
From 232 observations 2015 Jan. 6-2017 Sept. 12, mean residual 0".4.
|